6月4日、Catalinaスカイサーベイの0.68-m Schmidt反射望遠鏡で小惑星状天体が発見された。
小惑星センターのPCCP webpageに彗星に似た軌道を持つとして公表された。
その後、発見前5月31日のCatalina画像が見つかった。
A. Aletti, F. Bellini, L. Buzziと G. Galli (6月8.1日UT, 60-秒露出60枚のスタック, 0.36-m
f/8.4 反射望遠鏡, Hakos, ナミビア, Alettiが測定: p.a. 235°に伸びた6" の集光したコマと
15 "幅のかすかな外側のコマがあるかもしれない)や佐藤英貴氏(東京都文京区,6月11.4日, 60-秒
露出12枚のスタック, 0.51-m f/6.8 アストログラフ, Mayhill近郊, ニューメキシコ州, 米国,
遠隔操作: 強く集光した12"のコマが見えるが尾はなかった。6".5の円形範囲で測定した光度は
18.9等であった)らCCD位置観測者によって彗星状と観測された。
彗星機能の報告は次のとおり、
OC Date Reporter Coma Tail PA Exposures
M21 2022-06-08 A. Aletti 6" 6" 235 60x60s
X02 2022-06-09 E. Bryssinck 11" 25x60s
H06 2022-06-11 H. Sato 10" 12x60s
発見位置は次のとおり、
2022 UT R.A. (2000) Decl. Mag.
May 31.43719 22 14 19.14 -16 42 44.9 19.6
31.44284 22 14 18.47 -16 42 39.5
June 4.42611 22 09 00.75 -15 50 54.9 19.3
4.43115 22 09 00.18 -15 50 51.0 19.5
4.43619 22 08 59.60 -15 50 46.4 20.1
MPCの双曲線軌道要素、位置推算表は次のとおり、
Orbital elements:
C/2022 L1 (Catalina)
Epoch 2022 Aug. 9.0 TT = JDT 2459800.5
T 2022 Sept. 27.48665 TT Rudenko
q 1.5958226 (2000.0) P Q
z -0.0086754 Peri. 59.47884 -0.15754180 -0.67454406
+/-0.0000007 Node 300.07093 -0.90768128 +0.38658728
e 1.0138445 Incl. 123.55045 +0.38896693 +0.62892018
From 30 observations 2022 May 31-June 11, mean residual 0".7.
Ephemeris:
Date TT R. A. (2000) Decl. Delta r Elong. Phase m1
2022 05 14 22 27 02.7 -19 52 58 2.3261 2.4010 81.8 24.6 21.4
...
2022 05 29 22 17 01.8 -17 12 22 1.9006 2.2657 97.4 26.3 20.7
...
2022 06 06 22 06 35.2 -15 29 08 1.6761 2.1956 106.8 26.3 20.3
...
2022 06 12 21 55 21.8 -13 57 53 1.5130 2.1442 114.6 25.5 20.0
2022 06 13 21 53 08.9 -13 41 08 1.4865 2.1357 115.9 25.3 20.0
2022 06 14 21 50 49.4 -13 23 54 1.4603 2.1273 117.3 25.1 19.9
...
2022 06 20 21 34 19.6 -11 28 12 1.3090 2.0775 126.2 23.3 19.6
...
2022 06 28 21 04 10.0 -08 12 17 1.1304 2.0132 139.3 19.2 19.1
...
2022 07 13 19 37 48.6 +00 30 37 0.9213 1.9006 157.5 11.8 18.4
(MPEC 2022-L97、CBET 5134)